CAPE
0 0 0 0 0 0 0 0 0 0 0 0 0 0 0 0 0 0 0 0 0 0
0 0 0 0 0 0 0 0 0 0 0 0 0 0 0 0 0 0 0 0 0 0
0 0 0 0 0 0 0 0 0 0 0 0 0 0 0 0 0 0 0 0 0 0
0 0 0 0 0 0 0 0 0 0 0 0 0 0 0 0 0 0 0 0 0 0
0 0 0 0 0 0 0 0 0 0 0 0 0 0 0 0 0 0 0 0 0 0
0 0 0 0 0 0 0 0 0 0 0 0 0 0 0 0 0 0 0 0 0 0
0 0 0 0 0 0 0 0 0 0 0 0 0 0 0 0 0 0 0 0 0 0
0 0 0 0 0 0 0 0 0 0 0 0 0 0 0 0 0 0 0 0 0 0
0 0 0 0 0 0 0 0 0 0 0 0 0 0 0 0 0 0 0 0 0 0
0 0 0 0 0 0 0 0 0 0 0 0 0 0 0 0 0 0 0 0 0 0
0 0 0 0 0 0 0 0 0 0 0 0 0 0 0 0 0 0 0 0 0 0
0 0 0 0 0 0 0 0 0 0 0 0 0 0 0 0 0 0 0 0 0 0
0 0 0 0 0 0 0 0 0 0 0 0 0 0 0 0 0 0 0 0 0 0
0 0 0 0 0 0 0 0 0 0 0 0 0 0 2 6 0 0 0 0 0 0
CIN
0 0 0 0 0 0 0 0 0 0 0 0 0 0 0 0 0 0 0 0 0 0
0 0 0 0 0 0 0 0 0 0 0 0 0 0 0 0 0 0 0 0 0 0
0 0 0 0 0 0 0 0 0 0 0 0 0 0 0 0 0 0 0 0 0 0
0 0 0 0 0 0 0 0 0 0 0 0 0 0 0 0 0 0 0 0 0 0
0 0 0 0 0 0 0 0 0 0 0 0 0 0 0 0 0 0 0 0 0 0
0 0 0 0 0 0 0 0 0 0 0 0 0 0 0 0 0 0 0 0 0 0
0 0 0 0 0 0 0 0 0 0 0 0 0 0 0 0 0 0 0 0 0 0
0 0 0 0 0 0 0 0 0 0 0 0 0 0 0 0 0 0 0 0 0 0
0 0 0 0 0 0 0 0 0 0 0 0 0 0 0 0 0 0 0 0 0 0
0 0 0 0 0 0 0 0 0 0 0 0 0 0 0 0 0 0 0 0 0 0
0 0 0 0 0 0 0 0 0 0 0 0 0 0 0 0 0 0 0 0 0 0
0 0 0 0 0 0 0 0 0 0 0 0 0 0 0 0 0 0 0 0 0 0
0 0 0 0 0 0 0 0 0 0 0 0 0 0 0 0 0 0 0 0 0 0
0 0 0 0 0 0 0 0 0 0 0 0 0 0 0 0 0 0 0 0 0 0
Wind_Speed
8 6 7 9 8 10 11 12 12 12 11 11 11 10 9 6 5 6 5 7 5 3
11 10 10 10 9 9 9 8 12 15 14 12 13 13 12 8 9 8 6 6 6 4
11 12 10 10 13 12 12 11 13 15 15 14 12 12 13 9 9 11 8 7 9 6
6 7 7 10 12 13 10 13 14 16 15 16 16 14 13 12 12 13 11 9 10 9
8 8 8 10 11 12 14 14 16 16 15 16 17 16 17 16 14 15 14 13 11 10
10 10 14 15 13 12 13 15 15 16 18 19 19 18 18 17 16 16 14 14 14 12
11 14 15 14 13 13 14 13 15 18 18 18 19 19 19 17 16 15 14 13 13 14
10 8 10 11 13 12 14 16 15 14 15 16 17 15 19 19 18 17 15 13 13 12
14 9 9 11 11 11 14 14 14 16 16 16 13 27 32 24 18 17 17 15 13 11
16 15 12 8 7 11 14 13 15 16 16 17 16 29 31 30 15 17 16 16 14 12
16 15 13 7 7 6 8 13 14 15 16 16 16 29 31 29 15 16 17 17 18 17
15 16 13 7 7 5 6 9 12 12 14 17 15 29 31 28 15 15 16 15 16 16
12 12 13 8 5 3 5 8 7 8 10 13 12 28 32 29 12 14 11 13 14 21
12 11 10 9 2 4 4 3 3 3 5 9 12 17 33 33 12 11 11 11 12 11
Wind_Direction
196 193 198 186 178 182 188 189 175 188 186 183 176 172 170 168 169 162 167 172 165 151
185 185 193 177 175 188 190 180 171 180 181 184 179 174 170 175 171 166 164 170 162 152
215 205 185 178 196 184 182 170 174 181 182 180 185 180 176 174 167 167 173 169 167 166
251 224 197 201 198 194 177 176 179 183 185 181 184 185 183 180 172 180 174 170 174 171
227 214 215 222 214 188 185 182 183 182 185 188 189 185 188 183 181 180 180 173 172 171
231 215 221 222 216 207 199 191 188 184 186 190 190 187 191 187 181 186 186 175 175 170
239 225 229 228 216 206 200 202 199 193 192 194 189 189 189 183 184 183 184 176 176 170
289 260 239 228 217 204 204 198 199 200 198 191 195 191 187 185 182 178 176 176 176 177
324 298 264 244 224 200 204 200 196 200 194 198 200 196 192 183 180 181 177 175 174 171
336 325 297 258 228 210 205 195 201 201 195 196 207 199 196 192 182 178 179 170 171 165
334 321 304 278 244 241 213 204 201 201 199 197 203 198 195 191 185 179 176 174 175 174
331 319 306 269 260 239 227 222 218 207 197 203 203 195 189 186 188 184 175 171 173 174
307 297 290 273 256 240 225 233 222 211 204 210 202 196 191 184 178 178 173 171 176 177
297 292 289 286 250 242 215 172 189 200 209 205 200 202 198 186 186 178 170 175 173 180